Theta_e
289 288 288 288 287 287 286 286 286 285 285 284 284 284 284 283 283 283 284 285 287 289 290 288 287 287 287 286 286 286 287 287 287 287 288 288 288 289 289 290 290 290 291 291 291 291 291 291 290 289 288 287 288 289 289 289 289 289 290 291 292 293 292 292 292 294 295 295 295 297 298 299 299 303
289 288 288 287 287 287 286 286 286 285 285 285 285 284 284 284 283 283 283 285 286 288 289 288 286 286 286 286 286 286 286 286 286 286 287 287 287 288 288 289 289 289 290 290 291 290 290 289 288 287 287 286 287 288 288 289 289 289 289 289 291 292 292 292 292 294 296 296 294 294 298 300 298 299
289 288 288 287 287 287 286 286 286 285 285 285 285 284 284 284 284 284 283 284 286 288 288 287 286 286 286 286 286 286 286 286 286 286 286 287 287 287 287 287 288 288 288 288 289 289 288 287 286 285 285 285 286 286 287 287 288 289 289 289 289 290 291 292 293 294 297 298 296 294 297 302 301 298
288 288 287 287 286 286 286 286 285 285 285 285 285 284 284 284 284 285 284 284 287 289 288 287 286 286 286 286 286 285 285 285 285 286 286 286 286 286 287 287 287 287 287 287 287 287 286 285 284 283 284 284 284 285 285 286 286 287 288 289 289 289 289 290 292 294 296 297 296 295 296 299 301 301
288 288 287 286 286 286 286 285 285 285 285 284 284 284 284 284 284 285 285 285 286 289 289 287 287 286 286 286 285 285 285 285 285 285 285 286 286 286 286 286 286 285 286 286 286 285 284 283 282 282 283 283 283 284 285 286 287 287 288 289 290 290 290 290 290 292 294 296 296 295 294 295 298 301
288 287 287 286 286 286 286 286 285 285 285 284 284 284 284 284 284 284 285 285 285 287 288 287 287 286 286 286 286 285 284 285 285 284 285 286 286 286 284 285 285 284 283 284 284 282 281 281 281 281 282 282 283 284 285 286 287 288 289 289 290 290 291 291 290 290 292 294 295 295 294 294 295 298
288 287 287 286 286 286 286 286 285 285 285 284 284 284 284 284 284 284 284 284 284 286 287 287 286 286 285 285 286 285 284 284 283 283 284 285 285 284 283 283 284 282 281 281 281 280 280 280 281 281 281 282 283 284 285 286 287 288 289 289 290 290 291 291 291 291 290 292 294 294 293 293 294 295
288 287 287 286 286 286 286 286 285 285 284 284 284 284 284 284 284 284 284 284 284 284 285 286 286 286 285 285 284 284 284 283 282 282 283 283 282 282 281 281 281 280 279 279 279 279 279 280 280 280 280 282 283 284 285 286 287 288 289 289 290 290 291 291 292 292 291 290 292 293 294 293 293 293
287 287 286 286 286 286 286 285 285 284 284 284 284 284 283 283 283 284 283 284 284 284 284 285 285 285 285 284 283 283 282 281 281 281 281 280 280 280 280 279 278 278 278 278 278 278 279 279 280 280 280 281 282 283 284 285 286 287 288 289 290 290 291 291 291 292 292 291 291 292 293 294 293 292
287 287 286 286 286 286 286 285 285 284 284 284 283 283 283 283 283 283 283 283 283 283 284 284 285 285 284 282 283 283 280 278 278 279 279 278 277 277 278 278 277 277 277 278 278 278 278 279 280 280 280 281 282 282 283 285 286 287 288 289 290 290 291 291 291 291 292 292 292 292 292 293 294 293
287 286 286 286 286 285 285 285 284 284 283 283 283 283 283 283 283 283 283 283 283 282 282 282 282 282 282 280 281 280 278 276 276 277 278 278 277 277 277 277 277 277 277 278 278 278 278 279 279 280 280 281 282 283 283 285 286 287 288 288 289 290 290 291 291 291 291 292 292 292 292 293 294 294
286 286 286 285 285 285 285 284 284 283 283 283 283 283 283 283 282 282 282 282 281 280 279 279 279 279 278 278 278 277 276 276 276 276 277 277 277 277 277 277 278 278 278 278 278 278 279 279 280 280 281 282 283 283 284 285 286 287 287 287 287 288 289 290 290 290 291 291 292 292 292 293 293 294
286 286 285 285 285 285 284 284 283 283 283 283 283 283 283 282 282 281 281 280 278 277 277 277 276 276 276 276 276 276 276 276 277 277 277 277 278 278 278 278 278 278 278 278 278 279 279 280 281 281 282 283 283 283 283 284 285 286 286 286 286 286 288 290 290 289 290 291 291 291 292 292 293 293
285 285 285 285 285 284 284 284 284 283 283 283 283 282 282 281 280 279 279 278 277 276 276 276 276 276 276 276 276 276 277 277 277 277 278 278 278 278 278 278 278 278 278 278 279 279 279 280 280 281 281 281 281 282 282 282 283 285 285 285 285 286 287 290 290 289 289 291 291 292 292 292 293 293
286 286 285 285 285 284 284 284 284 283 282 282 282 281 280 279 278 277 277 276 276 276 276 276 276 277 277 277 277 277 277 277 277 278 278 278 277 277 278 278 278 278 278 278 278 278 278 278 279 280 280 280 280 280 281 281 282 283 285 285 285 285 287 289 290 289 290 292 292 293 292 292 292 292
286 286 285 285 285 285 285 284 283 282 282 281 281 281 280 278 277 276 276 276 276 276 276 277 277 277 277 277 277 277 277 277 277 277 277 277 277 277 277 277 278 278 278 278 278 277 278 278 278 279 279 279 280 280 280 281 282 283 284 284 285 285 286 288 289 290 292 293 293 293 293 292 292 292
285 285 285 285 285 285 284 283 283 282 282 281 281 281 280 278 277 276 276 276 276 276 276 276 276 276 276 277 277 277 277 277 277 277 277 277 277 277 277 277 277 278 277 278 278 278 278 278 278 278 279 279 280 280 280 281 282 283 283 284 285 285 285 287 288 290 292 293 294 294 294 293 292 292
285 285 285 285 284 284 283 282 282 281 281 281 281 280 279 278 277 276 276 276 276 276 276 276 276 276 276 277 277 276 277 277 277 277 277 277 277 277 277 278 278 278 278 278 278 278 278 278 278 279 279 280 280 281 281 281 282 283 283 284 284 285 285 285 287 290 292 293 294 295 295 294 292 291
286 285 285 284 284 283 282 281 281 281 281 281 280 279 278 277 276 275 275 276 276 276 276 277 277 277 277 277 277 277 277 277 277 277 277 277 277 278 278 278 278 278 278 278 278 278 279 279 279 279 280 280 281 281 281 282 282 283 283 284 284 285 285 285 286 288 291 293 294 294 295 295 293 292
286 285 284 284 283 282 281 281 281 281 281 279 278 277 276 275 275 275 276 276 276 277 277 277 277 277 276 276 277 277 277 277 277 277 277 277 277 277 278 278 278 278 278 278 279 279 280 280 280 280 281 281 281 281 281 281 282 283 283 284 285 285 285 285 286 287 290 292 293 294 295 295 295 294
286 284 284 283 282 281 281 281 281 281 280 278 276 276 275 275 275 276 276 276 276 276 276 276 276 276 276 276 276 277 277 277 277 276 276 276 276 276 277 277 277 278 278 278 279 280 280 280 280 280 280 281 281 281 281 281 281 283 283 284 285 285 285 286 287 288 290 292 293 294 295 295 295 295
285 284 283 282 281 281 281 281 281 280 279 277 276 276 275 275 276 276 276 276 275 275 275 275 275 275 275 275 275 275 275 276 275 274 274 275 274 274 274 275 276 276 276 277 278 278 278 278 279 279 279 280 280 281 281 281 282 283 284 285 285 286 286 286 287 288 290 292 292 293 295 295 295 295
284 283 282 282 281 281 281 280 280 280 278 277 276 276 275 275 275 275 275 275 275 275 275 275 275 275 275 275 275 275 276 275 274 273 273 273 273 273 274 275 275 275 276 276 277 277 278 278 278 279 280 281 281 281 282 282 283 284 284 285 285 285 285 285 285 287 290 291 291 293 294 295 296 296
283 283 282 281 281 280 280 280 280 279 278 276 276 275 275 275 275 275 275 274 274 275 275 275 275 275 276 275 275 275 274 273 272 272 272 272 273 273 274 275 275 276 276 277 277 278 278 278 278 279 280 281 281 281 281 282 282 283 283 283 283 283 284 284 285 286 289 290 291 292 294 295 296 296
283 282 281 281 280 280 280 279 279 279 277 276 275 276 275 275 275 274 274 274 275 275 275 275 275 276 276 275 273 272 272 272 272 272 272 272 272 273 274 274 275 276 276 277 278 278 278 278 278 279 279 280 280 280 280 281 281 281 282 282 282 283 284 284 285 286 288 289 291 293 294 295 295 295
283 282 281 280 280 280 279 279 279 278 277 276 276 276 275 275 274 274 275 275 275 275 275 275 275 276 275 274 273 272 272 272 271 271 271 272 272 272 272 273 273 274 275 276 276 277 277 277 278 278 279 280 280 280 280 281 281 281 282 282 283 284 284 284 285 286 287 288 290 291 293 295 295 295
282 281 280 280 279 279 279 279 279 278 277 277 276 276 275 275 275 275 275 275 275 275 275 275 275 275 273 272 272 273 272 272 271 270 271 271 271 271 271 272 272 272 273 274 274 274 275 276 277 277 278 279 280 280 281 281 281 282 282 283 283 284 284 285 285 286 287 289 289 290 292 293 293 294
281 280 280 279 279 279 279 279 278 277 277 276 275 275 275 275 275 275 275 275 275 275 275 275 274 274 273 272 272 272 272 271 271 271 271 271 271 271 271 272 272 272 272 273 273 273 274 275 276 276 277 277 278 279 280 281 281 282 282 283 283 284 285 285 285 285 287 288 290 290 291 292 292 292
280 279 279 279 279 279 279 278 277 277 276 275 275 275 275 275 275 275 274 274 274 275 274 274 274 274 274 273 272 272 271 271 271 271 271 271 271 271 272 272 272 272 272 272 273 273 273 274 275 276 276 277 278 278 279 280 281 282 282 283 283 284 285 285 285 285 286 287 288 289 290 291 291 292
279 279 279 279 279 278 278 277 277 276 275 275 275 275 275 275 274 274 274 274 274 274 274 274 274 274 274 273 272 272 271 271 271 271 271 271 271 271 272 272 272 272 272 272 272 272 272 273 273 274 275 277 278 279 279 280 281 281 282 283 283 284 285 286 286 286 287 287 288 288 289 289 290 290
279 279 279 278 278 277 277 276 276 275 275 275 275 274 274 274 274 274 274 274 273 273 273 273 274 274 273 272 272 272 271 271 271 271 271 271 271 271 272 272 272 272 272 272 272 272 272 272 273 273 274 275 276 277 279 280 281 282 282 283 284 284 285 286 286 287 287 287 288 288 289 289 289 289
279 278 278 278 277 277 276 275 275 274 274 274 274 274 274 274 274 274 273 273 273 273 273 274 274 273 273 272 271 271 271 271 271 271 271 271 271 271 272 272 272 272 272 272 272 272 272 272 272 273 273 274 274 276 277 279 280 281 283 284 284 285 286 286 287 287 288 288 288 289 289 290 290 289
278 278 277 277 277 276 275 274 274 274 274 274 274 274 273 273 273 273 273 273 273 273 273 273 273 272 272 271 271 270 270 270 270 271 271 271 271 271 272 272 272 272 272 272 272 271 271 272 272 272 272 273 274 275 277 278 280 281 283 284 284 285 286 287 287 288 288 288 289 289 289 290 290 290
278 277 277 276 276 275 274 274 274 274 274 273 273 273 273 273 273 273 273 273 273 273 273 273 272 271 271 270 270 270 270 270 270 271 271 271 271 271 271 272 272 272 272 272 272 271 271 271 271 271 272 272 274 275 277 279 281 282 284 284 285 285 287 287 288 288 288 289 289 289 290 290 291 290
277 277 276 275 275 274 274 273 273 273 273 273 273 274 274 273 273 272 272 272 272 273 272 272 271 270 270 270 270 270 270 270 270 271 271 271 271 271 271 272 272 272 272 272 271 271 271 271 271 271 272 272 274 276 279 281 282 284 285 285 285 286 287 288 288 289 289 289 289 290 290 291 291 291
277 276 275 275 274 273 273 273 273 273 273 273 273 273 273 273 272 272 272 272 272 272 271 271 270 269 269 269 270 270 270 270 270 271 271 271 271 271 271 271 272 272 272 271 271 271 271 271 271 271 272 272 273 275 278 281 284 285 286 286 286 287 287 288 288 289 289 290 290 290 291 291 291 291
276 275 274 274 273 273 273 273 272 272 272 272 273 273 272 272 272 271 271 271 272 272 271 270 269 269 269 269 269 270 270 270 270 270 270 270 270 271 271 271 271 271 271 271 271 271 271 271 271 271 271 272 273 275 277 279 282 285 287 287 288 288 288 288 289 289 290 290 290 291 291 291 291 292
275 275 274 273 273 273 273 272 272 272 272 272 272 272 272 272 271 271 271 271 271 271 270 269 269 269 269 269 269 270 270 270 270 270 270 270 270 270 270 271 271 271 271 271 271 271 271 271 271 271 271 271 272 273 275 277 280 284 287 288 288 289 289 289 289 290 290 290 291 291 291 291 292 293
274 274 273 273 273 273 272 272 272 272 272 272 272 272 272 272 271 270 270 271 271 271 270 269 269 269 269 269 269 269 270 270 270 270 270 270 270 270 270 270 270 271 271 271 271 271 271 271 270 270 271 271 271 272 273 275 278 281 285 287 287 287 288 289 290 290 291 291 291 291 291 292 292 293
274 273 273 273 273 272 272 272 272 272 272 272 272 272 272 271 270 270 270 270 270 270 270 270 269 268 268 269 269 269 269 269 269 269 269 270 270 270 270 270 270 270 270 270 270 270 270 270 270 270 270 270 271 271 271 272 274 276 281 286 287 286 287 289 290 291 291 292 292 292 292 293 293 294
273 273 272 272 272 272 272 272 272 272 272 272 272 272 271 271 270 269 269 269 270 270 270 270 269 268 268 268 269 269 269 269 269 269 269 269 269 270 270 270 270 270 270 270 270 270 270 270 270 270 270 270 270 270 270 271 272 274 279 285 288 288 287 289 290 291 292 292 292 293 293 293 294 294
273 273 273 272 272 272 272 272 272 272 272 272 272 271 271 270 270 269 269 269 270 270 270 269 268 268 268 268 269 269 269 269 269 269 269 269 269 269 269 269 270 270 270 270 270 270 270 270 269 270 270 270 270 270 270 271 272 274 277 282 286 287 288 289 290 291 291 292 293 293 293 293 294 294
273 273 273 272 272 272 271 271 272 272 272 272 271 271 271 270 270 270 269 269 270 270 270 269 268 268 268 268 269 269 269 269 269 269 269 269 269 269 269 269 269 269 269 269 269 269 269 269 269 269 269 270 270 270 271 272 273 274 276 280 284 287 288 289 290 291 292 292 293 293 293 293 294 294
273 273 272 272 272 272 271 271 272 272 272 271 271 271 270 270 270 269 269 269 269 269 269 269 268 268 268 268 268 268 269 269 269 269 269 269 269 269 269 269 269 269 269 269 269 269 269 269 269 269 269 270 270 270 271 272 274 275 277 280 283 286 287 288 290 292 292 293 293 293 293 293 293 294
273 272 272 272 271 271 271 271 271 271 271 271 271 270 270 270 270 269 269 269 269 269 269 269 268 268 268 268 268 268 268 269 269 269 269 269 269 269 269 269 269 269 269 269 269 269 269 269 269 269 269 269 270 271 271 272 274 275 277 279 282 285 287 288 290 291 292 293 293 293 293 294 294 294
Wind_Speed
21 20 20 19 18 18 17 16 16 16 17 18 19 21 21 23 29 35 41 45 42 40 43 43 42 42 43 45 47 48 49 50 49 51 51 51 52 52 52 52 52 51 51 51 51 51 51 50 50 50 49 47 44 44 45 44 45 49 53 54 53 52 52 50 49 50 52 55 53 52 55 56 55 57
21 21 20 20 19 19 18 17 17 17 18 19 19 20 21 22 24 27 35 46 46 42 45 45 44 46 47 47 49 49 50 50 50 51 51 51 52 53 53 53 53 52 52 51 51 51 51 49 49 47 45 43 41 41 42 42 43 45 49 54 57 57 55 52 52 49 48 53 55 53 53 55 57 58
21 21 20 20 20 19 18 17 17 17 18 19 20 21 22 23 25 26 30 41 48 46 47 49 48 48 50 49 50 50 50 50 50 51 51 51 51 52 53 52 52 50 49 50 50 50 48 46 44 44 44 43 43 43 44 44 44 43 44 49 55 60 60 57 56 52 47 47 51 53 49 47 52 56
21 21 20 20 20 19 18 17 17 18 18 19 20 22 24 24 25 28 29 38 49 49 47 50 51 49 51 51 50 50 50 50 50 50 50 50 51 52 52 51 50 49 48 47 47 47 45 42 42 43 44 45 46 46 46 45 45 45 45 45 47 52 58 61 61 59 55 51 49 51 50 48 49 51
20 20 20 20 20 19 18 17 17 18 18 20 21 22 25 26 26 28 31 37 47 50 48 49 51 51 51 52 51 50 51 50 48 48 48 48 50 51 52 52 51 48 47 46 45 44 43 41 41 42 43 44 45 45 44 44 43 43 44 44 43 44 48 54 60 63 62 59 55 52 52 52 51 50
20 20 19 19 19 18 17 17 18 19 19 21 23 23 25 27 27 28 31 35 42 50 51 49 51 52 51 52 52 49 49 48 47 47 48 49 51 52 52 52 52 48 45 45 44 42 40 39 40 42 43 44 44 43 43 42 42 42 42 42 42 42 43 46 52 60 65 65 61 57 55 53 52 53
20 20 19 19 18 17 17 18 18 20 21 22 24 25 26 28 29 29 31 34 39 47 51 50 50 52 52 52 51 48 46 45 46 49 50 50 51 52 52 51 51 49 45 43 42 39 40 41 40 41 42 42 42 42 41 41 42 42 42 41 41 42 43 44 46 51 60 66 66 62 60 58 55 54
20 20 19 18 17 17 17 18 20 21 23 24 25 27 27 28 30 30 31 33 36 42 49 50 49 51 52 51 48 45 45 45 46 50 52 52 53 53 52 50 50 48 45 43 42 40 40 42 41 41 41 40 40 40 40 40 41 41 41 41 41 41 41 42 42 44 50 59 65 65 64 64 63 59
20 19 18 18 17 17 18 19 20 22 23 25 26 27 28 28 29 31 31 33 35 39 46 50 49 48 48 48 45 43 44 47 49 51 52 52 52 53 53 49 47 48 48 46 45 44 43 44 43 43 42 40 39 38 38 39 40 40 40 40 40 41 41 40 41 41 43 49 57 62 63 65 69 68
19 18 18 17 17 17 18 19 21 22 24 25 26 27 28 29 30 31 32 34 36 39 43 46 48 47 45 46 46 42 43 46 49 53 57 53 47 47 52 52 47 47 48 46 45 45 46 46 44 45 45 42 40 39 39 39 40 40 40 40 40 41 41 41 42 42 42 44 48 54 58 59 64 71
19 18 17 17 17 17 18 20 21 23 24 25 27 27 28 29 30 32 33 34 36 37 40 42 44 45 44 45 47 45 44 46 47 48 54 60 53 44 48 53 50 48 48 48 46 45 45 44 44 45 44 41 38 38 38 37 38 38 39 41 42 42 42 42 43 46 48 47 45 48 53 54 55 62
18 18 16 16 16 17 18 20 21 22 24 25 26 26 27 29 30 32 33 33 33 35 37 40 42 45 46 47 49 50 48 49 51 46 45 57 61 52 49 51 48 45 49 51 50 45 41 41 43 42 38 35 34 35 35 36 37 40 42 43 44 45 47 46 45 48 52 54 51 48 49 53 54 55
18 16 15 15 16 17 18 19 20 22 24 25 26 27 27 28 29 30 30 31 32 33 36 39 41 44 48 50 50 53 53 51 55 54 46 49 55 52 52 55 48 43 47 50 47 42 38 39 40 38 34 34 35 35 38 41 43 44 46 45 44 44 47 46 44 46 51 55 56 53 50 51 54 55
17 15 15 16 16 17 18 19 21 22 24 25 26 27 27 27 27 28 28 29 30 33 36 40 42 44 49 51 50 54 56 53 51 50 45 45 48 47 50 57 56 47 41 41 42 42 40 40 42 44 44 45 45 45 48 50 49 49 49 45 42 41 43 44 44 46 49 52 54 53 51 51 53 55
16 16 16 16 16 17 18 20 21 22 22 23 23 24 23 24 24 25 27 29 31 34 38 40 41 42 47 50 49 49 52 51 48 45 42 43 47 47 47 52 57 51 40 39 46 52 50 46 46 51 54 54 53 52 52 50 50 50 49 45 41 38 39 43 45 44 45 48 50 50 50 51 53 56
16 16 16 16 16 17 19 20 21 21 22 22 23 23 22 21 21 22 25 28 31 34 38 40 41 42 45 47 47 45 46 47 48 47 47 45 45 47 48 50 55 55 48 46 52 59 58 51 48 54 57 54 53 53 51 48 46 46 46 45 43 39 38 41 44 42 41 43 46 48 50 52 53 55
17 16 16 16 17 18 19 20 20 21 22 23 24 24 23 23 22 22 23 26 29 32 36 40 43 42 42 45 48 47 46 47 49 52 54 53 50 52 54 56 60 61 55 51 54 60 63 57 52 57 59 53 51 51 48 44 42 43 45 47 46 43 41 42 43 42 40 41 43 46 49 51 52 56
17 16 16 17 18 19 19 19 20 21 23 24 25 25 25 25 24 24 25 26 27 29 32 38 42 41 41 45 49 49 47 47 50 53 57 58 57 58 60 61 64 64 59 52 51 57 64 60 54 57 56 52 51 50 46 44 43 42 44 46 46 46 44 41 42 42 41 41 42 44 46 49 51 54
17 16 16 18 19 19 19 19 20 22 23 24 25 25 25 26 26 27 28 28 29 30 31 35 40 42 42 44 46 48 48 48 49 51 55 57 58 60 62 63 64 65 59 48 43 51 61 60 54 55 53 50 52 53 47 44 43 43 44 46 47 47 45 41 41 43 42 41 42 44 45 47 49 51
17 17 18 19 20 19 19 19 20 21 22 22 22 23 24 26 27 28 28 28 28 29 31 35 38 41 42 42 42 43 44 45 46 48 52 55 54 54 57 58 61 63 57 44 37 44 54 54 51 51 50 48 52 56 52 48 47 46 45 45 46 46 44 40 40 43 43 41 41 42 44 46 49 50
18 18 19 20 20 19 19 19 20 20 19 19 21 24 25 25 27 28 29 29 29 30 33 35 37 38 39 38 39 40 41 43 45 46 52 54 53 53 54 55 58 61 58 46 35 37 48 52 52 52 53 53 55 58 58 54 50 47 46 44 43 41 38 36 36 39 42 41 40 40 42 45 47 49
19 19 20 19 19 19 19 19 19 18 17 19 21 22 24 26 29 31 32 32 32 32 33 35 36 37 38 39 42 43 44 44 42 44 49 51 50 52 54 55 57 62 64 55 42 43 54 59 57 56 56 57 57 55 54 51 47 45 43 38 36 37 38 40 40 39 40 42 42 40 40 42 44 45
19 20 20 19 18 18 18 18 18 17 17 19 19 20 24 29 32 32 30 30 31 31 33 35 38 40 41 43 44 44 42 40 37 37 40 41 43 46 49 51 52 57 62 52 37 38 47 50 51 49 45 48 52 49 46 43 40 40 39 37 39 43 46 47 45 41 40 42 42 41 41 43 44 44
20 21 19 17 16 17 18 17 17 18 16 16 18 21 26 30 30 28 26 28 29 31 34 37 39 41 41 41 40 39 39 38 36 34 34 35 37 40 44 48 48 53 60 51 36 37 45 48 50 49 43 45 52 53 52 50 48 48 48 49 51 51 49 47 45 41 40 41 41 41 41 40 40 41
21 20 18 16 15 16 16 16 17 16 14 14 18 22 25 26 25 23 25 28 30 32 35 37 37 38 38 38 37 37 38 37 35 34 32 33 35 36 40 45 47 53 59 51 38 38 44 48 51 52 49 48 52 56 59 59 59 58 55 53 52 51 48 46 45 41 39 39 39 39 39 37 38 40
21 18 15 15 15 15 15 16 15 13 13 15 18 20 20 21 22 23 26 29 30 32 34 35 36 36 36 36 36 37 37 36 32 30 30 31 34 36 39 42 46 53 59 54 44 41 46 50 51 50 50 51 52 55 58 60 61 58 52 49 50 50 48 46 45 44 41 38 38 39 39 40 42 45
20 16 14 14 15 15 15 14 12 11 12 14 15 16 17 19 21 24 26 28 29 31 32 33 34 34 34 35 36 37 37 35 31 30 31 33 35 38 41 42 45 49 53 53 48 46 50 56 57 54 53 53 53 54 57 61 62 57 51 51 51 50 50 48 47 47 42 37 38 39 39 41 44 47
17 15 14 15 15 15 14 11 9 10 11 12 13 15 16 19 21 23 25 27 28 29 30 31 32 33 32 33 34 35 34 34 33 32 33 35 36 38 41 42 43 45 47 47 46 44 46 53 59 60 58 57 57 58 60 61 60 56 55 57 56 55 53 51 49 49 45 40 40 40 40 41 44 46
16 15 15 16 15 13 11 9 8 8 10 11 13 14 16 18 20 22 24 25 26 28 29 30 32 33 33 32 32 32 32 33 34 34 35 37 38 38 40 41 42 43 43 44 46 45 45 48 53 55 57 58 60 64 66 65 63 60 59 59 60 59 56 52 49 50 49 47 45 45 45 45 46 48
17 17 16 14 12 10 9 7 7 7 9 10 12 13 15 16 18 20 22 24 25 27 29 30 31 32 32 32 32 32 33 34 34 35 37 40 41 40 40 43 45 45 44 44 45 45 45 47 49 50 54 57 59 62 66 66 66 66 63 62 63 63 60 56 53 51 50 50 49 49 50 50 50 51
18 17 15 13 11 9 7 6 6 7 8 9 10 12 13 15 17 19 21 23 24 26 28 29 31 32 31 32 33 34 35 36 36 36 37 41 43 42 41 43 47 49 48 46 45 43 43 44 45 47 51 55 59 63 64 63 64 66 65 63 63 64 62 58 55 52 51 51 51 51 51 50 50 51
18 16 14 12 10 7 5 6 7 8 8 9 10 11 12 14 17 18 20 22 23 25 27 29 31 31 31 33 34 35 36 38 38 37 38 41 43 43 42 44 48 50 50 50 47 44 41 41 43 45 47 50 56 61 62 61 64 66 65 63 62 64 64 61 58 56 53 49 48 49 49 48 49 50
18 16 14 10 8 5 5 6 8 8 8 8 9 10 12 14 16 18 20 23 24 26 28 29 30 31 32 34 35 36 38 39 39 39 40 42 44 43 43 45 47 49 50 52 50 47 44 42 42 44 46 48 51 54 56 60 63 65 64 63 61 62 64 62 60 59 55 49 48 49 50 51 50 50
18 16 12 9 6 6 7 8 8 8 8 8 9 10 12 15 17 19 21 23 25 26 28 29 29 31 33 35 36 37 39 40 41 41 42 43 44 44 44 46 48 48 49 51 51 48 46 45 44 45 46 46 46 47 50 56 61 62 62 61 60 60 62 60 58 57 55 51 49 49 51 53 52 49
17 14 11 9 8 8 9 9 8 7 7 8 9 11 13 15 17 20 21 23 25 27 27 28 29 31 33 35 37 38 39 40 42 44 45 45 44 44 44 46 48 49 48 49 50 48 46 45 44 43 44 43 42 42 42 46 51 57 59 59 58 58 59 57 55 55 54 51 49 48 50 53 53 50
16 13 11 10 10 10 10 9 8 7 7 8 10 12 14 16 18 20 22 24 25 26 27 28 30 32 33 35 37 38 39 40 43 46 47 47 46 45 46 46 47 48 48 48 49 47 45 44 41 39 40 40 39 39 40 38 38 44 53 57 57 56 57 56 55 53 52 50 48 48 49 52 54 51
15 14 12 11 11 12 10 8 7 7 7 9 11 13 15 17 19 21 22 24 26 26 27 28 30 32 34 35 37 38 39 40 44 47 49 50 49 47 47 47 48 48 49 49 48 46 44 44 40 36 36 37 36 38 41 39 36 37 44 52 56 57 55 54 53 52 52 50 49 49 50 52 54 52
16 14 13 12 13 12 10 9 8 7 8 10 12 13 15 17 19 21 23 25 27 28 28 29 30 33 34 35 37 39 41 43 46 50 51 51 50 49 50 51 51 50 50 50 48 46 43 42 41 37 35 36 38 39 39 39 38 36 36 40 49 56 56 54 52 52 51 50 49 50 52 53 53 50
15 14 13 13 13 12 10 8 8 8 9 10 12 14 16 18 20 22 24 26 27 28 29 30 31 33 34 36 37 39 41 45 49 52 52 51 51 50 51 52 52 52 52 51 50 48 44 42 43 41 38 39 42 42 39 40 44 46 41 36 40 48 52 54 53 52 51 49 48 48 49 50 50 49
16 15 14 14 13 11 9 8 7 8 9 11 13 15 17 19 20 22 25 27 28 29 30 30 32 33 35 37 38 40 43 47 49 51 52 52 52 52 51 51 52 52 52 53 53 50 46 44 45 44 43 44 47 47 46 47 52 56 53 47 43 43 45 48 52 52 51 48 45 44 45 45 46 48
16 15 15 14 12 10 8 7 7 8 10 12 14 16 17 19 20 23 26 27 28 30 31 31 32 34 36 38 39 41 46 50 51 52 53 53 53 53 52 52 52 52 52 54 55 53 50 48 48 47 46 47 48 46 46 46 48 51 53 52 50 46 43 42 45 49 51 48 43 41 42 42 43 45
16 15 14 13 11 9 8 7 7 9 10 12 15 17 18 19 21 23 25 27 28 30 32 32 34 35 37 39 40 43 47 51 53 53 53 53 55 56 55 53 53 53 52 54 57 56 53 51 50 47 46 46 45 42 42 43 42 43 47 49 50 48 45 42 41 44 48 49 45 42 41 40 37 38
16 15 14 12 10 9 7 7 8 9 11 13 15 17 19 21 22 23 26 28 29 30 32 33 35 36 38 39 41 44 48 52 53 54 54 55 55 56 57 55 54 53 53 55 57 57 54 51 49 46 43 42 40 39 40 41 40 39 41 43 45 47 46 44 42 41 43 46 48 47 46 43 38 37
15 14 12 11 9 8 7 8 9 10 12 14 16 18 20 21 23 24 25 27 29 31 32 34 35 37 38 40 42 46 49 51 52 53 55 56 56 56 56 56 55 54 54 55 57 57 54 51 48 45 43 42 40 37 37 39 39 38 37 38 41 44 45 44 42 41 41 45 48 48 48 48 46 44
15 12 11 10 8 7 7 8 9 11 13 14 16 18 20 22 23 25 26 27 30 31 33 34 36 38 39 40 43 48 51 52 52 54 55 56 56 56 56 56 56 55 54 53 54 56 55 53 49 45 42 42 40 37 37 38 39 38 37 37 39 43 44 43 42 41 43 47 49 48 47 47 47 46
Wind_Direction
281 283 283 283 283 283 287 291 296 300 301 303 306 306 306 304 306 312 314 314 317 319 319 319 318 317 318 316 315 314 314 313 311 310 310 311 311 312 312 312 312 311 309 307 305 303 301 300 297 294 291 289 286 285 283 279 273 266 261 259 259 260 259 258 257 257 258 258 256 255 251 249 249 247
277 280 280 280 280 281 285 290 295 299 302 304 305 306 306 304 303 306 307 309 311 315 315 313 312 313 314 313 312 312 312 310 307 306 306 307 309 309 310 311 311 310 308 307 305 303 302 300 296 293 290 288 286 286 284 282 279 274 268 261 258 257 257 256 255 256 259 259 256 256 255 253 252 250
275 278 278 277 278 280 284 290 295 299 302 304 305 306 305 306 305 305 304 303 305 310 311 309 309 310 311 311 310 310 309 306 305 304 303 305 308 309 309 309 309 308 308 307 306 304 302 299 295 291 288 286 286 285 284 282 280 278 276 269 262 258 256 254 253 254 257 259 257 254 255 257 255 252
275 277 275 274 276 279 283 288 294 299 302 304 305 305 305 305 305 305 303 299 301 306 308 307 308 308 309 309 308 307 306 304 303 303 303 305 307 309 309 309 310 309 309 308 307 306 303 297 292 290 287 286 287 286 285 284 281 277 277 276 271 264 259 255 251 251 252 253 253 251 252 254 254 252
274 274 272 272 274 276 282 289 295 298 301 303 303 303 302 302 303 302 301 300 301 304 306 306 306 307 307 307 307 306 305 304 304 303 304 306 307 309 310 311 312 312 310 309 308 308 304 297 292 290 290 289 289 288 286 285 282 280 278 277 275 272 268 261 254 250 249 250 251 250 250 252 253 252
271 271 268 269 273 277 284 290 294 298 300 300 300 300 299 299 300 300 299 299 299 302 304 306 306 306 306 305 306 307 307 308 309 308 309 309 309 311 313 313 314 314 313 311 310 309 305 299 293 292 292 291 289 288 286 284 282 280 279 277 275 273 271 269 262 254 250 249 250 250 248 250 253 252
269 269 267 268 272 277 284 290 294 297 298 297 297 298 297 298 299 299 298 297 297 299 301 303 305 305 304 304 305 308 311 313 314 312 313 313 312 313 315 314 314 314 313 312 310 306 303 300 295 293 293 291 290 288 285 284 282 280 279 277 275 274 271 270 268 262 255 250 249 250 247 247 251 252
267 266 266 267 270 276 283 289 293 293 294 295 295 296 296 297 298 298 297 296 295 295 297 300 302 302 302 303 307 312 314 315 316 315 315 316 314 314 315 315 314 314 313 312 308 303 303 302 296 293 293 292 290 287 284 283 283 281 280 277 275 275 273 270 268 266 261 254 250 251 249 246 247 250
264 264 264 265 270 277 284 287 289 291 292 293 293 293 295 295 295 296 294 293 291 289 291 296 298 299 301 306 310 315 317 316 316 317 317 317 315 314 316 314 310 312 312 309 307 303 301 300 296 294 294 292 290 287 282 280 280 280 279 278 276 274 272 271 268 266 265 260 253 251 251 249 247 248
260 261 261 265 270 276 283 286 287 288 289 291 292 293 293 293 294 295 293 291 289 288 290 295 299 302 305 308 310 313 316 314 314 317 317 317 314 311 313 312 307 308 310 306 304 302 300 299 297 296 295 293 291 288 283 280 280 281 280 278 277 273 271 270 267 266 266 265 260 253 251 251 249 248
256 258 259 265 271 276 282 284 285 288 290 291 292 292 293 293 294 293 292 291 291 293 297 299 302 306 307 309 309 311 313 310 309 314 314 314 315 310 307 309 308 308 308 306 303 300 301 300 297 296 295 294 293 289 286 283 280 278 275 271 269 266 265 266 265 265 265 264 264 258 252 250 249 248
253 257 260 266 272 276 280 281 284 288 289 290 289 290 292 292 292 292 293 295 298 301 304 304 306 308 307 308 308 309 310 307 307 310 306 306 313 312 306 306 307 306 306 306 306 304 302 301 300 300 300 300 299 292 284 278 272 269 268 270 270 266 262 262 263 266 267 265 263 261 256 250 248 246
251 255 260 266 270 273 276 279 283 287 287 288 290 291 293 293 295 297 299 302 304 304 303 303 304 305 302 303 305 305 305 304 305 309 307 302 306 309 305 303 303 303 305 305 306 306 305 303 301 301 299 296 293 286 281 279 276 273 274 276 278 273 264 261 264 268 270 267 263 260 258 253 249 245
249 254 258 263 266 269 274 279 284 288 289 292 294 295 297 298 299 301 301 301 301 299 298 298 299 298 296 299 301 301 303 305 305 307 308 304 303 303 303 302 301 303 305 303 301 301 303 301 297 293 289 288 287 283 283 285 283 281 280 279 280 278 267 261 264 269 269 267 263 258 256 255 250 245
248 254 259 262 266 270 277 281 284 288 290 292 292 291 292 292 292 292 292 293 293 292 293 293 293 293 293 296 299 298 301 305 304 301 300 299 299 299 298 298 299 300 301 299 296 296 297 297 293 291 289 288 289 288 288 289 287 285 282 279 279 280 271 264 265 268 267 263 260 256 254 255 251 246
248 254 258 263 270 274 278 280 282 285 286 285 284 284 286 286 283 278 277 280 283 284 286 286 286 286 287 290 292 294 296 299 298 297 295 293 292 293 292 290 291 294 296 294 293 294 295 294 290 290 290 288 288 290 292 292 287 284 283 281 279 280 277 271 268 268 265 262 259 256 255 255 252 246
248 255 262 269 277 279 279 281 284 285 285 283 283 284 286 287 289 286 277 272 273 275 278 280 281 282 284 287 289 292 294 295 294 293 293 291 289 288 287 286 287 290 292 290 289 291 292 292 289 288 289 289 287 289 292 291 283 280 283 284 282 282 282 277 271 267 263 261 259 256 254 254 251 245
252 262 272 279 282 282 283 286 287 285 284 283 283 285 288 292 296 294 285 279 279 280 281 283 287 290 291 291 292 292 292 291 290 290 291 291 290 290 288 287 287 289 288 285 283 285 289 291 288 287 288 289 288 288 289 286 282 280 283 283 281 282 285 279 271 267 263 260 258 255 253 253 252 247
263 272 280 283 284 286 287 288 286 284 284 285 287 291 294 294 291 288 290 295 298 297 294 292 292 294 292 290 290 291 291 292 291 291 292 291 291 291 290 288 288 288 287 284 278 278 285 290 287 285 288 288 287 288 287 284 281 280 281 281 278 281 286 282 272 268 264 261 257 252 250 250 249 248
269 275 279 282 284 286 287 285 283 283 285 287 289 289 285 284 286 290 296 299 295 290 288 287 285 286 286 286 286 287 289 290 290 290 289 288 287 288 287 287 286 286 286 284 278 275 281 286 286 285 287 287 286 287 286 284 284 281 279 279 278 279 284 282 274 268 264 261 258 252 248 248 247 247
266 272 276 279 281 282 284 283 281 283 284 283 280 279 281 287 293 295 294 292 287 283 283 285 286 288 289 288 287 286 286 286 286 286 284 282 283 284 284 283 282 281 281 281 279 275 276 281 283 284 285 284 283 284 285 286 287 281 277 278 280 281 285 285 279 273 265 260 258 253 247 245 246 246
263 268 271 274 277 280 281 281 282 283 281 276 277 284 292 295 291 289 290 292 293 294 294 294 295 295 294 291 288 288 288 288 287 283 280 281 282 280 280 280 280 281 280 278 276 274 275 278 281 282 283 283 281 282 284 287 286 282 279 281 281 281 283 283 281 277 269 260 257 255 248 244 243 244
260 263 267 271 275 278 279 279 281 280 275 275 282 289 290 286 284 289 296 299 301 302 299 297 297 296 296 294 294 295 297 298 296 289 283 284 283 280 280 280 280 279 280 280 278 274 275 279 280 280 280 283 283 283 283 283 282 279 277 275 275 277 279 277 275 273 270 263 256 253 251 248 244 242
257 261 265 269 270 270 273 275 274 272 271 277 283 282 279 281 288 298 303 300 300 298 294 294 296 298 298 299 301 305 307 306 302 294 285 280 278 278 279 280 278 276 278 282 280 273 274 278 278 277 276 278 281 282 280 279 277 276 275 273 276 281 282 280 276 272 268 265 258 252 252 249 243 241
255 259 263 265 264 264 267 268 266 266 270 275 276 277 280 287 295 300 297 293 295 296 295 297 298 299 302 306 308 309 309 307 304 298 288 279 276 275 275 276 278 276 276 279 279 275 276 276 275 276 275 273 275 278 280 281 279 278 278 277 278 282 282 282 281 276 272 269 263 255 249 243 240 243
253 258 259 258 259 261 262 261 260 265 270 271 275 281 287 291 293 291 292 295 299 300 299 299 300 304 309 312 313 313 313 312 308 299 289 282 279 278 276 274 276 275 273 274 277 277 278 277 276 277 276 272 272 274 277 278 279 279 280 278 276 278 280 280 280 279 277 273 267 260 251 243 244 249
252 254 253 252 255 255 254 254 258 265 271 274 280 286 288 290 292 294 298 301 301 300 300 302 307 311 313 314 316 319 319 317 310 299 292 289 287 285 284 280 278 277 277 279 280 278 276 275 273 273 274 274 274 273 272 273 275 276 276 275 274 275 276 276 277 277 276 272 268 265 258 251 250 252
248 247 245 246 248 248 248 253 260 267 273 279 284 287 290 294 298 301 303 303 302 303 307 311 313 315 315 316 320 322 321 320 316 309 303 300 297 294 292 288 284 283 283 285 286 283 280 275 272 270 271 272 272 272 271 271 272 272 273 274 274 273 274 274 273 272 270 267 265 264 262 259 256 254
241 238 239 241 243 244 249 255 262 270 276 279 282 288 293 298 302 304 305 307 309 311 315 316 316 318 319 321 323 326 326 324 322 319 314 310 307 304 300 296 292 289 287 286 286 284 281 277 274 272 271 270 269 269 269 269 270 270 270 271 272 272 272 272 270 269 268 267 263 260 260 260 259 257
234 236 236 237 238 240 246 255 264 272 274 275 281 290 296 300 305 308 310 314 317 318 320 320 319 321 323 324 327 331 330 328 327 325 319 315 312 310 305 300 296 293 291 289 288 286 282 278 274 272 271 269 268 266 266 266 267 267 267 267 269 270 270 269 267 265 265 265 263 260 258 258 259 260
230 232 230 228 230 233 241 256 268 269 268 272 282 292 300 307 312 315 317 321 323 323 323 323 323 325 327 328 331 334 332 330 329 326 320 316 314 312 307 301 296 295 295 294 294 292 287 282 279 275 272 270 267 264 264 264 265 266 265 264 264 265 266 265 263 261 261 262 262 261 261 260 260 261
224 224 222 222 224 228 242 261 264 259 260 271 284 295 305 311 316 321 325 327 328 327 327 327 328 330 331 332 335 335 332 329 327 325 320 316 314 312 307 300 296 297 298 298 298 298 294 288 284 280 277 274 270 267 265 264 263 262 263 262 261 261 262 261 260 259 258 258 259 259 260 260 260 261
216 215 216 217 217 222 238 249 248 248 258 276 290 301 308 312 319 328 331 332 332 332 331 332 334 336 336 337 337 334 329 326 324 322 320 317 314 312 306 299 296 297 298 299 300 301 299 296 291 287 283 279 274 269 265 263 262 259 259 260 258 258 260 259 257 257 256 253 252 254 256 259 261 261
208 209 209 206 208 217 226 229 233 243 260 278 291 302 311 318 327 333 335 335 335 335 335 336 339 341 339 337 335 331 326 324 323 321 319 316 314 310 305 300 298 298 297 298 300 301 301 300 300 297 294 289 283 273 262 258 260 259 258 257 255 255 257 258 256 255 254 251 249 251 254 259 262 260
202 203 198 196 204 212 214 220 231 247 264 282 296 307 317 326 332 335 337 337 336 336 337 340 343 343 340 336 332 328 324 323 322 320 318 316 313 310 305 301 299 299 298 297 299 301 301 302 302 301 299 297 294 285 268 256 257 258 256 254 253 252 253 255 255 254 252 250 248 249 252 257 260 259
197 196 191 193 201 207 211 221 236 253 274 294 308 318 326 333 337 338 338 337 336 338 341 343 344 344 339 335 331 328 325 324 321 319 317 316 313 310 306 302 299 299 299 297 297 299 300 300 299 298 297 296 294 289 277 265 260 259 255 253 252 250 249 251 252 252 250 248 246 245 248 253 258 257
190 190 191 195 202 208 217 230 245 261 284 303 316 326 333 337 340 340 338 336 336 339 343 344 344 342 339 336 333 329 327 324 320 317 316 315 314 311 307 303 301 300 298 297 298 298 298 297 295 292 290 289 287 284 281 276 269 262 258 256 253 250 248 247 248 248 248 246 245 244 246 251 256 256
187 188 191 198 205 211 222 236 252 271 293 309 321 331 335 337 340 340 338 336 336 339 342 343 343 342 340 337 334 330 327 324 320 318 317 316 314 312 308 305 304 302 300 298 298 297 296 293 291 287 284 280 277 278 282 284 277 267 262 260 257 253 247 243 243 245 245 245 246 247 247 251 254 254
185 188 194 201 208 216 228 242 259 281 300 315 326 332 334 336 338 337 336 336 338 339 341 342 343 342 339 337 334 330 327 323 321 320 319 317 315 313 310 308 306 305 302 300 299 297 295 291 288 286 282 276 272 273 278 281 276 265 255 252 255 256 251 244 241 242 243 245 247 249 250 253 257 258
185 191 198 205 211 222 235 249 269 290 308 322 330 333 333 334 334 333 335 337 338 337 338 341 343 342 338 337 336 331 326 324 323 322 320 319 316 314 312 310 307 306 303 301 299 298 295 292 290 289 285 281 279 279 278 277 273 266 255 245 245 252 255 250 244 241 242 244 246 247 248 252 255 258
186 193 201 208 216 228 241 255 278 300 316 327 331 333 333 332 331 331 333 335 334 334 337 341 343 341 338 338 336 331 326 325 325 324 322 320 318 316 315 312 310 308 305 303 302 300 297 296 296 293 289 286 285 282 276 270 269 267 261 251 246 250 258 259 252 245 243 245 246 246 247 250 254 257
187 194 203 211 221 234 248 266 289 309 322 329 331 332 331 330 330 330 329 330 332 334 338 341 343 341 339 338 335 330 327 326 326 325 324 322 319 318 317 315 313 311 307 304 303 303 301 301 301 298 294 290 285 276 267 262 263 266 265 258 253 253 258 263 261 253 249 247 245 245 247 249 250 252
190 198 206 215 228 241 257 280 301 315 325 330 330 329 329 330 331 330 328 329 333 336 338 342 344 342 339 337 333 329 327 328 328 326 324 323 321 319 318 316 314 312 310 307 306 306 306 305 305 303 297 289 278 268 263 262 263 265 266 264 259 255 255 259 261 258 254 251 250 249 251 251 248 248
196 203 209 220 236 251 269 291 309 319 326 329 328 328 329 331 331 330 328 329 333 336 339 343 345 342 339 336 332 329 328 329 329 327 325 324 322 320 319 318 316 314 313 311 310 310 310 309 308 306 299 288 276 266 263 263 263 262 263 264 261 258 257 258 259 258 256 253 253 253 253 254 254 253
199 206 215 227 244 262 281 300 313 320 325 326 327 329 331 331 331 330 329 330 334 337 341 345 345 342 339 335 330 328 329 330 330 328 326 325 324 322 321 320 318 316 316 315 313 312 313 313 312 308 300 290 280 269 263 263 262 261 262 263 260 257 255 255 255 255 255 255 255 256 255 255 256 256